#timestamp,LO_Frequency,Hit 
1497758415.5,286047004.0,N
1497758435.3,286047003.4,N
1497758455.2,286047005.9,N
1497758475.9,286047007.1,N
1497758495.7,286047006.9,N
1497758515.5,286047008.4,N
1497758535.4,286047008.5,N
1497758555.2,286047009.0,Y
1497758575.0,286047001.4,N
1497758575.9,286047001.4,N
1497758595.8,286047002.0,N
1497758615.6,286047000.7,N
1497758635.4,286047001.0,N
1497758655.3,286046999.2,N
1497758675.1,286046997.5,N
1497758676.0,286046997.5,N
1497758695.8,286046999.1,N
1497758715.7,286046998.2,N
1497758735.5,286047002.5,N
1497758755.3,286046998.3,N
1497758775.2,286046998.4,N
1497758795.9,286047001.2,N
1497758815.7,286047001.2,N
1497758835.5,286046998.5,N
1497758855.4,286047000.4,N
1497758875.2,286047002.2,N
1497758895.0,286047002.5,N
1497758895.9,286047002.5,N
1497758915.8,286047002.8,N
1497758935.6,286047002.5,N
1497758955.4,286047002.2,N
1497758975.3,286047001.7,N
1497758995.1,286047004.1,N
1497758996.0,286047004.1,N
1497759015.8,286047001.4,N
1497759035.7,286047003.9,N
1497759055.5,286047002.4,N
1497759075.3,286047002.4,N
1497759095.1,286047001.1,N
1497759115.9,286046997.1,N
1497759135.7,286046997.4,N
1497759155.5,286047000.3,N
1497759175.4,286047001.9,N
1497759195.2,286047002.3,N
1497759215.0,286047001.6,N
1497759215.9,286047001.6,N
1497759235.8,286047005.6,N
1497759255.6,286047004.9,N
1497759275.4,286047007.5,N
1497759295.3,286047005.7,N
1497759315.1,286047005.3,N
1497759316.0,286047005.3,N
1497759335.8,286047006.8,N
1497759355.7,286047005.2,N
1497759375.5,286047003.3,N
1497759395.3,286047003.0,N
1497759415.1,286047004.0,N
1497759435.9,286047001.6,N
1497759455.7,286047003.6,N
1497759475.5,286047005.9,N
1497759495.4,286047005.3,N
1497759515.2,286047006.5,N
1497759535.0,286047007.9,N
1497759535.9,286047007.9,N
1497759555.8,286047008.9,Y
1497759575.6,286047002.9,N
1497759595.4,286047003.0,N
1497759615.3,286047003.9,N
1497759635.1,286047004.2,N
1497759636.0,286047004.2,N
1497759655.8,286047004.3,N
1497759675.7,286046999.7,N
1497759695.5,286047001.7,N
1497759715.3,286047000.3,N
1497759735.1,286047000.1,N
1497759755.9,286047005.4,N
1497759775.7,286047004.9,N
1497759795.5,286047003.2,N
1497759815.4,286047004.7,N
1497759835.2,286047006.7,N
1497759855.0,286047007.4,N
1497759855.9,286047007.4,N
1497759875.8,286047005.4,N
1497759895.6,286047005.6,N
1497759915.4,286047003.4,N
1497759935.3,286047004.0,N
1497759955.1,286047003.1,N
1497759956.0,286047003.1,N
1497759975.8,286047005.2,N
1497759995.6,286047004.8,N
1497760015.5,286047004.9,N
1497760035.3,286047005.7,N
1497760055.1,286047005.7,N
1497760075.9,286047006.0,N
1497760095.7,286047003.4,N
1497760115.5,286047003.6,N
1497760135.4,286047001.5,N
1497760155.2,286047003.4,N
1497760175.0,286047003.2,N
1497760175.9,286047003.2,N
1497760195.8,286047003.6,N
1497760215.6,286047004.3,N
1497760235.4,286047003.1,N
1497760255.2,286047005.2,N
1497760275.1,286047005.3,N
1497760276.0,286047005.3,N
1497760295.8,286047005.0,N
1497760315.6,286047004.5,N
1497760335.5,286047004.5,N
1497760355.3,286047004.0,N
1497760375.1,286047004.6,N
1497760395.9,286047007.1,N
1497760415.7,286047006.6,N
1497760435.5,286047004.6,N
1497760455.4,286047006.6,N
1497760475.2,286047004.6,N
1497760495.0,286047005.3,N
1497760495.9,286047005.3,N
1497760515.7,286047002.9,N
1497760535.6,286047007.6,N
1497760555.4,286047005.1,N
1497760575.2,286047005.8,N
1497760595.1,286047003.6,N
1497760596.0,286047003.6,N
1497760615.8,286047005.2,N
1497760635.6,286047005.2,N
1497760655.5,286047004.9,N
1497760675.3,286047003.7,N
1497760695.1,286047007.1,N
1497760715.9,286047008.0,Y
1497760735.7,286047005.1,N
1497760755.5,286047002.9,N
1497760775.4,286047005.6,N
1497760795.2,286047005.1,N
1497760815.0,286047004.8,N
1497760815.9,286047004.8,N
1497760835.8,286047003.3,N
1497760855.6,286047003.0,N
1497760875.4,286047002.3,N
1497760895.2,286047004.2,N
1497760915.1,286047001.9,N
1497760916.0,286047001.9,N
1497760935.8,286047002.7,N
1497760955.6,286047001.9,N
1497760975.5,286047001.6,N
1497760995.3,286047001.5,N
1497761015.1,286047003.7,N
1497761035.9,286047004.8,N
1497761055.7,286047004.1,N
1497761075.5,286047005.2,N
1497761095.4,286047004.5,N
1497761115.2,286047003.4,N
1497761135.0,286047002.4,N
1497761135.9,286047002.4,N
1497761155.8,286047001.6,N
1497761175.6,286047001.7,N
1497761195.4,286047002.2,N
1497761215.3,286047001.9,N
1497761235.1,286047001.3,N
1497761236.0,286047001.3,N
1497761255.8,286047003.7,N
1497761275.6,286047001.3,N
1497761295.5,286047001.4,N
1497761315.3,286047004.3,N
1497761335.1,286047003.5,N
1497761355.9,286047003.3,N
1497761375.7,286047002.2,N
1497761395.5,286047003.3,N
1497761415.4,286047005.5,N
1497761435.2,286047003.5,N
1497761455.0,286047003.7,N
1497761455.9,286047003.7,N
1497761475.8,286047006.0,N
1497761495.6,286047005.5,N
1497761515.4,286047005.1,N
1497761535.2,286047003.4,N
1497761555.1,286047003.3,N
1497761556.0,286047003.3,N
1497761575.8,286047004.5,N
1497761595.6,286047007.6,Y
1497761615.5,286047002.5,N
1497761635.3,286047002.4,N
1497761655.1,286047000.5,N
1497761675.9,286046998.3,N
1497761695.7,286046996.5,N
1497761715.5,286046999.3,N
1497761735.4,286047000.7,N
1497761755.2,286046998.1,N
1497761775.0,286047000.8,N
1497761775.9,286047000.8,N
1497761795.8,286046999.7,N
1497761815.6,286047000.7,N
1497761835.4,286047000.1,N
1497761855.2,286047000.0,N
1497761875.1,286046999.7,N
1497761876.0,286046999.7,N
1497761895.8,286047001.0,N
1497761915.6,286047000.6,N
1497761935.5,286046998.8,N
1497761955.3,286046998.8,N
1497761975.1,286047001.0,N
1497761995.9,286046998.3,N
